EKRAN 2 DEB, 59988

Orbit data source: Space-Track

EKRAN 2 DEB, 59988 is space debris in GEO originally from a launch on Tue, 20 Sep 1977 UTC launched from the Tyuratam Missile And Space Complex (TTMTR). Debris objects in space refer to the collection of defunct objects orbiting the Earth. Examples of debris include non-operational satellites, rocket bodies, and fragments generated from explosions, collisions, or faulty payload assembly.

Loading next visibility...
Identifier
59988, 1977-092P
Orbit
GEO
Country
Flag of CISCIS
Related business
Manufacturer
Unknown
Mission
Spacecraft
Bus & Motor
Unknown
Mass
Unknown
Launch date (UTC)
1977-09-20 (49 years ago)
Launch vehicle
Unknown
Launch site
Tyuratam Missile And Space Complex (TTMTR)
Object type
Payload
Rocket body
Debris
Shape & HBR
Unknown shape, 1.1 m
Radar Cross Section
RCS unknown

Expand to show TLE details & history
Last TLE update: 1 month ago

TLE from 1 month ago
0 EKRAN 2 DEB
1 59988U 77092P   26134.55788483  .00000130  00000-0  00000-0 0  9992
2 59988   4.0234 271.8693 0044461  85.0066 275.5603  1.00888840 74707
Epoch: 2026-05-14T13:23Z
TLE epoch observation values (Epoch: 2026-05-14T13:23:21.249Z)
Latitude
0.00591°
Longitude
-161.23686°
Altitude
35,597.755 km
Speed
3.082 km/s
True Right ascension
18h 07m 36s
True Declination
0° 00' 21"
Sunlit
Object was in daylight at epoch
Visualization orbit readout
Latitude
Unknown
Longitude
Unknown
Altitude
Unknown
Speed
Unknown
Apparent Right ascension
Unknown
Apparent Declination
Unknown
Sunlit
N/A
Visualization observer readout
Local Sidereal Time
21:46:02
Azimuth
Unknown
Elevation
Unknown
Doppler factor
Unknown
Orbital elements
Apogee altitude
35,802.269 km
Perigee altitude
35,428.853 km
Semi-major axis
41,993.698 km
Eccentricity
0.00445
Inclination
4.0234°
RAAN
271.8693°
Arg. of periapsis
85.0066°
True anomaly
275.05295°
Mean anomaly
275.5603°
Eccentric anomaly
275.30665°
Mean motion
0.25221 °/min
Orbital period
1,427.37 mins
BSTAR
0
Loading maneuver chart data...
Computing Atmospheric mass density...
Loading historical data...
Loading historical data...
Loading historical data...
Loading historical data...
Loading historical data...
Loading historical data...
Loading historical data...

Documentation

Showing up to 5 results
|